This demonstration page uses our WeatherBlox Daily Observations layout. Learn more.

Left ArrowRight Arrow

Hourly Observations for September 9, 2020

Temp ( °F °C ) Dew Point ( °F °C ) Humidity (%) Winds ( mph kmh ) Pressure ( in mb ) Visibility ( mi km ) Precip ( " mm )
12:15 am 00:15 Cloudy with Nearby Thunderstorms 39 3.9 37 2.5 91 91 N 9 15 30.40 1029 10 16 0.02 0.51
12:35 am 00:35 Cloudy with Rain 39 4 37 2.6 91 91 N 7 11 30.44 1031 7 11 0.03 0.76
12:55 am 00:55 Cloudy 39 3.7 37 2.6 93 93 NNE 14 22 30.39 1029 5 8 0.07 1.78
1:15 am 01:15 Cloudy with Light Rain 39 3.7 37 2.7 93 93 N 13 20 30.39 1029 7 11 0.02 0.51
1:35 am 01:35 Cloudy with Rain 39 3.9 37 2.9 93 93 N 13 20 30.40 1029 10 16 0.02 0.51
1:55 am 01:55 Cloudy 39 4 37 3 93 93 N 12 19 30.41 1030 10 16 0.02 0.51
2:15 am 02:15 Cloudy with Rain 39 4 37 3 93 93 N 15 24 30.40 1029 5 8 0.01 0.25
2:35 am 02:35 Cloudy with Rain 39 4 37 3 93 93 N 17 28 30.39 1029 10 16 0.02 0.51
2:55 am 02:55 Cloudy with Drizzle 39 3.9 37 2.9 93 93 N 13 20 30.38 1029 10 16 0.02 0.51
3:15 am 03:15 Cloudy 39 4 37 2.8 92 92 N 12 19 30.40 1029 10 16 N/A
3:35 am 03:35 Cloudy with Drizzle 39 4 37 3 93 93 N 13 20 30.40 1029 10 16 N/A
3:55 am 03:55 Cloudy with Drizzle 39 4 37 3 93 93 N 12 19 30.40 1029 10 16 N/A
4:15 am 04:15 Cloudy with Drizzle 39 3.8 37 3 95 95 N 13 20 30.40 1029 7 11 N/A
4:35 am 04:35 Cloudy with Drizzle 39 3.7 37 3 95 95 N 12 19 30.40 1029 7 11 N/A
4:55 am 04:55 Cloudy 39 3.8 37 3 95 95 N 14 22 30.41 1030 10 16 N/A
5:15 am 05:15 Cloudy 39 4 37 3 93 93 N 10 17 30.41 1030 10 16 N/A
5:35 am 05:35 Cloudy 39 4 37 3 93 93 N 9 15 30.42 1030 10 16 N/A
5:55 am 05:55 Cloudy 39 4 37 3 93 93 N 12 19 30.41 1030 10 16 N/A
6:15 am 06:15 Cloudy with Rain 39 4 37 3 93 93 N 14 22 30.41 1030 10 16 N/A
6:35 am 06:35 Cloudy with Drizzle 39 4 37 3 93 93 N 12 19 30.41 1030 7 11 N/A
6:55 am 06:55 Cloudy 39 4 37 3 93 93 N 15 24 30.40 1029 10 16 N/A
7:15 am 07:15 Cloudy 39 4 38 3.1 94 94 NNE 13 20 30.40 1029 10 16 N/A
7:35 am 07:35 Cloudy 39 4.1 38 3.1 93 93 NNE 13 20 30.40 1029 10 16 N/A
7:55 am 07:55 Cloudy 40 4.2 38 3.2 93 93 NNE 15 24 30.40 1029 10 16 N/A
8:15 am 08:15 Cloudy 40 4.5 38 3.2 91 91 NNE 16 26 30.39 1029 10 16 N/A
8:35 am 08:35 Cloudy 40 4.6 38 3.5 93 93 N 12 19 30.40 1030 10 16 N/A
8:55 am 08:55 Cloudy 41 5 38 3.4 90 90 N 12 19 30.42 1030 10 16 N/A
9:15 am 09:15 Cloudy 41 5.1 38 3.3 88 88 N 13 20 30.43 1030 10 16 N/A
9:35 am 09:35 Cloudy 41 5.2 38 3.2 87 87 N 13 20 30.43 1030 10 16 N/A
9:55 am 09:55 Cloudy 42 5.6 38 3.6 87 87 NNE 12 19 30.42 1030 10 16 N/A
10:15 am 10:15 Cloudy 43 6 38 3.6 85 85 NNE 16 26 30.42 1030 10 16 N/A
10:35 am 10:35 Cloudy 43 6.1 38 3.5 84 84 N 13 20 30.43 1030 10 16 N/A
10:55 am 10:55 Cloudy 43 6.2 38 3.4 82 82 N 15 24 30.44 1031 10 16 N/A
11:15 am 11:15 Cloudy 45 7 38 3.6 79 79 NNE 16 26 30.43 1030 10 16 N/A
11:35 am 11:35 Cloudy 45 7.2 38 3.4 77 77 NNE 18 30 30.42 1030 10 16 N/A
11:55 am 11:55 Cloudy with Light Rain 45 7.1 38 3.5 78 78 NNE 12 19 30.41 1030 10 16 N/A
12:15 pm 12:15 Cloudy 45 7.2 38 3.6 78 78 NNE 17 28 30.43 1030 10 16 N/A
12:35 pm 12:35 Cloudy 46 7.6 38 3.5 76 76 NNE 15 24 30.42 1030 10 16 N/A
12:55 pm 12:55 Cloudy 46 8 38 3.4 73 73 NNE 16 26 30.42 1030 10 16 N/A
1:15 pm 13:15 Cloudy 47 8.2 38 3.1 71 71 N 15 24 30.41 1030 10 16 N/A
1:35 pm 13:35 Cloudy 47 8.2 38 3.1 71 71 NNE 16 26 30.41 1030 10 16 N/A
1:55 pm 13:55 Cloudy 46 7.8 39 4 77 77 NNE 13 20 30.40 1030 10 16 N/A
2:15 pm 14:15 Cloudy 46 8 39 3.8 75 75 N 14 22 30.41 1030 10 16 N/A
2:35 pm 14:35 Cloudy with Light Rain 46 8 38 3.6 74 74 NNE 13 20 30.39 1029 10 16 N/A
2:55 pm 14:55 Cloudy with Light Rain 46 7.8 39 3.9 77 77 N 10 17 30.40 1030 10 16 N/A
3:15 pm 15:15 Cloudy with Drizzle 46 7.8 40 4.2 78 78 NNE 14 22 30.39 1029 10 16 N/A
3:35 pm 15:35 Cloudy with Drizzle 46 7.7 40 4.2 79 79 NNE 14 22 30.39 1029 10 16 N/A
3:55 pm 15:55 Cloudy with Light Rain 46 7.8 41 5.1 83 83 NNE 12 19 30.39 1029 10 16 N/A
4:15 pm 16:15 Cloudy with Drizzle 46 7.9 41 5 82 82 NNE 8 13 30.39 1029 10 16 N/A
4:35 pm 16:35 Cloudy with Light Rain 47 8.1 41 5.2 82 82 NNE 13 20 30.39 1029 10 16 N/A
4:55 pm 16:55 Cloudy with Rain 46 7.9 42 5.4 84 84 NNE 12 19 30.38 1029 10 16 N/A
5:15 pm 17:15 Cloudy with Light Rain 46 7.9 42 5.8 87 87 N 9 15 30.39 1029 10 16 N/A
5:35 pm 17:35 Cloudy with Rain 46 7.6 42 5.5 87 87 N 8 13 30.38 1029 10 16 N/A
5:55 pm 17:55 Cloudy with Light Rain 46 7.6 42 5.6 87 87 N 8 13 30.38 1029 10 16 N/A
6:15 pm 18:15 Cloudy with Drizzle 46 7.5 42 5.7 88 88 N 6 9 30.39 1029 10 16 0.01 0.25
6:35 pm 18:35 Cloudy with Rain 46 7.5 42 5.8 89 89 N 7 11 30.39 1029 10 16 0.01 0.25
6:55 pm 18:55 Cloudy with Drizzle 45 7.3 42 5.5 88 88 N 7 11 30.40 1029 10 16 0.01 0.25
7:15 pm 19:15 Cloudy with Drizzle 45 7.2 42 5.7 90 90 N 6 9 30.40 1029 10 16 N/A
7:35 pm 19:35 Cloudy with Drizzle 45 7.2 42 5.7 90 90 N 7 11 30.40 1029 10 16 N/A
7:55 pm 19:55 Cloudy with Drizzle 45 7 42 5.6 91 91 N 6 9 30.40 1029 10 16 N/A
8:15 pm 20:15 Cloudy with Drizzle 45 7 42 5.5 90 90 N 6 9 30.40 1029 10 16 N/A
8:35 pm 20:35 Cloudy with Drizzle 45 7 42 5.6 91 91 N 6 9 30.41 1030 10 16 N/A
8:55 pm 20:55 Cloudy 45 7 42 5.6 91 91 N 7 11 30.41 1030 10 16 N/A
9:15 pm 21:15 Cloudy with Light Rain 45 7 42 5.7 92 92 N 6 9 30.42 1030 10 16 N/A
9:35 pm 21:35 Cloudy 45 7 42 5.5 90 90 N 5 7 30.43 1030 10 16 N/A
9:55 pm 21:55 Cloudy 45 7 42 5.6 91 91 NNE 7 11 30.43 1030 10 16 N/A
10:15 pm 22:15 Cloudy 45 7 42 5.7 92 92 N 6 9 30.43 1030 10 16 N/A
10:35 pm 22:35 Cloudy 45 7 42 5.6 91 91 NNE 5 7 30.44 1031 10 16 N/A
10:55 pm 22:55 Cloudy 45 7 42 5.7 92 92 NNE 5 7 30.45 1031 10 16 N/A
11:15 pm 23:15 Cloudy 45 7.1 42 5.7 91 91 NNE 5 7 30.46 1031 10 16 N/A
11:35 pm 23:35 Cloudy 45 7.2 42 5.7 90 90 NE 7 11 30.46 1031 10 16 N/A
11:55 pm 23:55 Cloudy 45 7.2 42 5.8 91 91 NNE 6 9 30.46 1031 10 16 N/A

Powered by AerisWeather